カタログに戻る

COSMOS 1275 DEB

運用中PO
NORAD 13809·DEBRIS·🇷🇺 Russia

打ち上げ Jun 4, 1981 から Plesetsk Cosmodrome

Loading…

次のパス (今後24時間)

TLE

最新Source: Space-Track

元期: Sep 14, 2026, 23:15 UTC

1 13809U 81053HD  26257.96881115  .00169455  00000-0  30236-2 0  9995
2 13809  82.7816 254.1713 0011855 151.7974 208.3922 15.49379202289638

AllMySatでCOSMOS 1275 DEBをリアルタイム追跡

Download on the App Store